This demonstration page uses our WeatherBlox Daily Observations layout. Learn more.

Left ArrowRight Arrow

40.92945, -100.16068

Hourly Observations for March 12, 2021

Temp ( °F °C ) Dew Point ( °F °C ) Humidity (%) Winds ( mph kmh ) Pressure ( in mb ) Visibility ( mi km ) Precip ( " mm )
12:18 am 00:18 Clear 37 3 25 -4 60 60 ESE 8 13 30.35 1028 10 16 N/A
12:37 am 00:37 Partly Cloudy 37 3 25 -4 60 60 ESE 7 11 30.35 1028 10 16 N/A
12:57 am 00:57 Mostly Cloudy 37 3 27 -3 65 65 ESE 7 11 30.35 1028 10 16 N/A
1:17 am 01:17 Mostly Cloudy 36 2 27 -3 70 70 E 6 9 30.36 1028 10 16 N/A
1:38 am 01:38 Mostly Cloudy 34 1 25 -4 70 70 ESE 7 11 30.37 1028 10 16 N/A
1:57 am 01:57 Mostly Cloudy 37 3 27 -3 65 65 ESE 7 11 30.35 1028 10 16 N/A
2:17 am 02:17 Mostly Cloudy 34 1 27 -3 75 75 ENE 3 6 30.38 1029 10 16 N/A
2:37 am 02:37 Partly Cloudy 34 1 27 -3 75 75 N N/A 30.38 1029 10 16 N/A
2:57 am 02:57 Partly Cloudy 34 1 25 -4 70 70 ESE 3 6 30.39 1029 10 16 N/A
3:15 am 03:15 Mostly Cloudy 33 0.7 26 -3.6 73 73 E 3 6 30.39 1029 10 16 N/A
3:35 am 03:35 Cloudy 34 1.3 26 -3.2 72 72 E 3 6 30.38 1029 10 16 N/A
3:55 am 03:55 Mostly Cloudy 34 1 26 -3.5 72 72 E 7 11 30.38 1029 10 16 N/A
4:15 am 04:15 Partly Cloudy 32 0.1 25 -3.7 76 76 NE 3 6 30.38 1029 10 16 N/A
4:35 am 04:35 Clear 32 -0.2 26 -3.6 78 78 N N/A 30.39 1029 10 16 N/A
4:55 am 04:55 Partly Cloudy 33 0.7 25 -3.7 73 73 N N/A 30.40 1029 10 16 N/A
5:15 am 05:15 Mostly Cloudy 34 1.3 27 -3 73 73 N N/A 30.41 1030 10 16 N/A
5:35 am 05:35 Cloudy 35 1.5 26 -3.3 71 71 ESE 5 7 30.41 1030 10 16 N/A
5:55 am 05:55 Mostly Cloudy 35 1.5 26 -3.1 72 72 ESE 3 6 30.41 1030 10 16 N/A
6:10 am 06:10 Mostly Cloudy 35 1.5 26 -3.1 72 72 N N/A 30.41 1030 10 16 N/A
6:37 am 06:37 Cloudy 34 1 27 -3 75 75 N N/A 30.41 1030 10 16 N/A
6:57 am 06:57 Mostly Cloudy 34 1 27 -3 75 75 N N/A 30.42 1030 10 16 N/A
7:17 am 07:17 Partly Cloudy 34 1 27 -3 75 75 N N/A 30.42 1030 10 16 N/A
7:37 am 07:37 Partly Cloudy 34 1 28 -2 81 81 N N/A 30.43 1030 10 16 N/A
7:57 am 07:57 Mostly Cloudy 36 2 27 -3 70 70 E 6 9 30.41 1030 10 16 N/A
8:18 am 08:18 Mostly Cloudy 37 3 27 -3 65 65 E 8 13 30.39 1029 10 16 N/A
8:38 am 08:38 Partly Cloudy 39 4 27 -3 61 61 ENE 9 15 30.40 1029 10 16 N/A
8:58 am 08:58 Partly Cloudy 39 4 27 -3 61 61 E 7 11 30.41 1030 10 16 N/A
9:18 am 09:18 Mostly Cloudy 43 6 27 -3 53 53 ESE 9 15 30.40 1029 10 16 N/A
9:38 am 09:38 Partly Cloudy 43 6 25 -4 49 49 ESE 12 19 30.40 1029 10 16 N/A
9:57 am 09:57 Partly Cloudy 43 6 25 -4 49 49 ESE 14 22 30.40 1029 10 16 N/A
10:18 am 10:18 Mostly Cloudy 46 8 27 -3 46 46 SE 13 20 30.37 1028 10 16 N/A
10:57 am 10:57 Sunny 48 9 27 -3 43 43 ESE 15 24 30.37 1028 10 16 N/A
11:17 am 11:17 Sunny 48 9 27 -3 43 43 ESE 15 24 30.37 1028 10 16 N/A
11:35 am 11:35 Sunny 49 9.7 26 -3.1 41 41 ESE 17 28 30.35 1028 10 16 N/A
11:55 am 11:55 Sunny 50 9.9 27 -2.8 41 41 SE 16 26 30.35 1028 10 16 N/A
12:15 pm 12:15 Sunny 50 10 27 -2.8 41 41 ESE 15 24 30.36 1028 10 16 N/A
12:35 pm 12:35 Partly Cloudy 50 10.1 27 -2.7 41 41 ESE 14 22 30.35 1028 10 16 N/A
12:55 pm 12:55 Partly Cloudy 52 11.2 27 -3 37 37 E 12 19 30.33 1027 10 16 N/A
1:15 pm 13:15 Partly Cloudy 52 11 26 -3.4 37 37 SE 16 26 30.33 1027 10 16 N/A
1:35 pm 13:35 Sunny 53 11.4 25 -3.8 35 35 ESE 17 28 30.32 1027 10 16 N/A
1:55 pm 13:55 Partly Cloudy 53 11.5 24 -4.4 33 33 ESE 18 30 30.32 1027 10 16 N/A
2:15 pm 14:15 Partly Cloudy 53 11.7 26 -3.6 34 34 ESE 16 26 30.31 1026 10 16 N/A
2:35 pm 14:35 Partly Cloudy 53 11.7 26 -3.6 34 34 ESE 18 30 30.30 1026 10 16 N/A
2:55 pm 14:55 Sunny 53 11.5 25 -4 34 34 ESE 16 26 30.30 1026 10 16 N/A
3:15 pm 15:15 Sunny 52 11.3 26 -3.3 36 36 SE 12 19 30.30 1026 10 16 N/A
3:35 pm 15:35 Mostly Cloudy 53 11.6 27 -2.6 37 37 SE 12 19 30.30 1026 10 16 N/A
3:55 pm 15:55 Partly Cloudy 53 11.8 27 -2.8 36 36 ESE 14 22 30.29 1026 10 16 N/A
4:15 pm 16:15 Mostly Cloudy 52 11.1 28 -2.3 39 39 SE 15 24 30.28 1025 10 16 N/A
4:35 pm 16:35 Partly Cloudy 52 11.1 27 -2.8 38 38 SE 14 22 30.28 1025 10 16 N/A
4:55 pm 16:55 Sunny 51 10.7 26 -3.2 38 38 ESE 12 19 30.28 1026 10 16 N/A
5:15 pm 17:15 Mostly Cloudy 51 10.5 26 -3.5 38 38 ESE 13 20 30.29 1026 10 16 N/A
5:35 pm 17:35 Cloudy 50 10.1 26 -3.6 38 38 E 14 22 30.29 1026 10 16 N/A
5:55 pm 17:55 Partly Cloudy 50 9.9 25 -3.8 38 38 E 15 24 30.28 1025 10 16 N/A
6:15 pm 18:15 Mostly Cloudy 48 9.1 25 -3.7 41 41 ESE 12 19 30.31 1026 10 16 N/A
6:35 pm 18:35 Cloudy 48 9 25 -3.8 41 41 SE 10 17 30.31 1026 10 16 N/A
6:55 pm 18:55 Cloudy 47 8.5 25 -4 41 41 ESE 12 19 30.32 1027 10 16 N/A
7:15 pm 19:15 Cloudy 47 8.2 26 -3.6 43 43 ESE 12 19 30.33 1027 10 16 N/A
7:35 pm 19:35 Cloudy 47 8.1 26 -3.5 44 44 ESE 10 17 30.33 1027 10 16 N/A
7:55 pm 19:55 Cloudy 46 8 26 -3.3 45 45 ESE 12 19 30.33 1027 10 16 N/A
8:15 pm 20:15 Cloudy 46 7.8 26 -3.2 46 46 ESE 9 15 30.34 1027 10 16 N/A
8:35 pm 20:35 Cloudy 46 7.6 25 -3.7 45 45 E 9 15 30.34 1028 10 16 N/A
8:55 pm 20:55 Cloudy 45 7.4 26 -3.3 47 47 ESE 8 13 30.35 1028 10 16 N/A
9:15 pm 21:15 Cloudy 45 7.1 28 -2.5 51 51 ESE 10 17 30.36 1028 10 16 N/A
9:35 pm 21:35 Cloudy 44 6.8 27 -3 50 50 ESE 20 31 30.36 1028 10 16 N/A
9:55 pm 21:55 Cloudy 43 6.2 29 -1.8 57 57 ESE 14 22 30.37 1028 10 16 N/A
10:15 pm 22:15 Cloudy 43 6.1 29 -1.5 59 59 ESE 15 24 30.37 1028 10 16 N/A
10:35 pm 22:35 Cloudy 43 6.1 29 -1.6 58 58 ESE 14 22 30.37 1028 10 16 N/A
10:55 pm 22:55 Cloudy 43 5.9 31 -0.8 62 62 ESE 15 24 30.38 1029 10 16 N/A
11:15 pm 23:15 Cloudy 41 5.2 32 undefined 69 69 ESE 17 28 30.39 1029 10 16 N/A
11:35 pm 23:35 Cloudy with Mist and Fog 39 3.9 35 1.6 85 85 ESE 14 22 30.40 1029 5 8 N/A
11:55 pm 23:55 Cloudy 39 3.8 35 1.7 86 86 ESE 10 17 30.40 1029 10 16 N/A

Powered by AerisWeather